Location: *
(53.9002°N, 27.5624°E)
Time: 04:52:03
(UTC+00:00)

Cosmos 2227 - Pass Details

Date: 12 November 2019
Orbit: 832 x 863 km, 71.0° (Epoch: 14 December)

Event Time Altitude Azimuth Distance (km) Brightness Sun altitude
Rises 16:44:27 0° 327° (NNW) 3,454 7.8 -21.7°
Reaches altitude 10° 16:47:02 10° 333° (NNW) 2,516 7.0 -22.0°
Maximum altitude 16:52:36 47° 47° (NE) 1,139 4.5 -22.9°
Enters shadow 16:52:58 46° 58° (ENE) 1,148 4.5 -22.9°
